SCP
0 0 0 0 0 0 0 0 0 0 0 0 0 0 0 0 0 0 0 0 0 0 0 0 0 0 0 0 0 0 0 0 0 0 0 0 0 0
0 0 0 0 0 0 0 0 0 0 0 0 0 0 0 0 0 0 0 0 0 0 0 0 0 0 0 0 0 0 0 0 0 0 0 0 0 0
0 0 0 0 0 0 0 0 0 0 0 0 0 0 0 0 0 0 0 0 0 0 0 0 0 0 0 0 0 0 0 0 0 0 0 0 0 0
0 0 0 0 0 0 0 0 0 0 0 0 0 0 0 0 0 0 0 0 0 0 0 0 0 0 0 0 0 0 0 0 0 0 0 0 0 0
0 0 0 0 0 0 0 0 0 0 0 0 0 0 0 0 0 0 0 0 0 0 0 0 0 0 0 0 0 0 0 0 0 0 0 0 0 0
0 0 0 0 0 0 0 0 0 0 0 0 0 0 0 0 0 0 0 0 0 0 0 0 0 0 0 0 0 0 0 0 0 0 0 0 0 0
0 0 0 0 0 0 0 0 0 0 0 0 0 0 0 0 0 0 0 0 0 0 0 0 0 0 0 0 0 0 0 0 0 0 0 0 0 0
0 0 0 0 0 0 0 0 0 0 0 0 0 0 0 0 0 0 0 0 0 0 0 0 0 0 0 0 0 0 0 0 0 0 0 0 0 0
0 0 0 0 0 0 0 0 0 0 0 0 0 0 0 0 0 0 0 0 0 0 0 0 0 0 0 0 0 0 0 0 0 0 0 0 0 0
0 0 0 0 0 0 0 0 0 0 0 0 0 0 0 0 0 0 0 0 0 0 0 0 0 0 0 0 0 0 0 0 0 0 0 0 0 0
0 0 0 0 -0 0 0 0 0 0 0 0 0 0 0 0 0 0 0 0 0 0 0 0 0 0 0 0 0 0 0 0 0 0 0 0 0 0
0 0 -0 -0 -0 0 0 0 0 0 0 0 0 0 -0 -0 -0 -0 0 0 0 0 0 0 0 0 0 0 0 0 0 0 0 0 0 0 0 0
0 0 -0 -0 -0 0 0 0 0 0 0 0 0 0 -0 -0 -0 0 0 0 0 0 0 0 0 0 0 0 0 0 0 0 0 0 0 0 0 0
0 0 0 0 0 0 0 0 0 0 0 0 0 0 -0 -0 -0 0 0 0 0 0 0 0 0 0 0 0 0 0 0 0 0 0 0 0 0 0
0 0 0 0 0 0 0 0 0 0 0 0 0 0 -0 -0 -0 -0 0 0 0 0 0 0 0 0 0 0 0 0 0 0 0 0 0 0 0 0
0 0 0 0 0 0 0 0 0 0 0 0 0 0 0 -0 -0 -0 0 0 0 0 0 0 0 0 0 0 0 0 0 0 0 0 0 0 0 0
0 0 0 0 0 0 0 0 0 0 0 0 0 0 0 -0 -0 -0 0 0 0 0 0 0 0 0 0 0 0 0 0 0 0 0 0 0 0 0
0 0 0 0 0 0 0 0 0 0 0 0 0 0 0 0 0 0 0 0 0 0 0 0 0 0 0 0 0 0 0 0 0 0 0 0 0 0
0 0 0 0 0 0 0 0 0 0 0 0 0 0 0 0 0 0 0 0 0 0 0 0 0 0 0 0 0 0 0 0 0 0 0 0 0 0
0 0 0 0 0 0 0 0 0 0 0 0 0 0 0 0 0 0 0 0 0 0 0 0 0 0 0 0 0 0 0 0 0 0 0 0 0 0
0 0 0 0 0 0 0 0 0 0 0 0 0 0 0 0 0 0 0 0 0 0 0 0 0 0 0 0 0 0 0 0 0 0 0 0 0 0
0 0 0 0 0 0 0 0 0 0 0 0 0 0 0 0 0 0 0 0 0 0 0 0 0 0 0 0 0 0 0 0 0 0 0 0 0 0
0 0 0 0 0 0 0 0 0 0 0 0 0 0 0 0 0 0 0 0 0 0 0 0 0 0 0 0 0 0 0 0 0 0 0 0 0 0
Wind_Speed
5 5 4 3 3 3 3 3 3 2 2 2 2 4 3 4 5 5 6 9 10 9 9 10 10 10 10 9 9 8 7 6 5 3 3 3 4 5
4 5 4 3 3 3 2 2 2 3 3 2 3 3 4 5 8 8 8 11 12 10 10 10 10 10 9 9 9 8 7 6 5 4 4 4 4 6
5 5 5 4 3 2 2 2 2 3 5 3 3 4 5 6 6 7 7 7 8 11 11 10 10 9 9 9 8 7 6 6 5 4 4 5 6 7
5 5 4 4 4 3 3 4 4 4 6 7 3 4 6 5 6 7 6 7 7 11 12 11 10 10 9 8 8 7 7 6 5 5 5 6 8 9
4 5 5 5 5 4 5 6 6 6 5 7 4 3 5 5 6 6 7 6 6 8 9 10 10 10 10 9 9 8 7 6 6 5 6 7 8 10
6 6 5 5 6 7 7 8 8 8 7 7 6 4 4 4 4 5 5 6 6 6 7 7 8 9 10 9 9 9 8 7 6 6 6 7 8 10
8 7 7 9 9 7 8 8 9 8 7 7 6 5 4 4 4 2 3 3 5 5 4 5 5 5 6 7 8 9 8 8 8 8 8 8 9 11
8 8 9 11 15 15 14 11 9 10 9 7 6 6 4 3 3 3 3 3 4 5 4 4 4 5 5 5 8 9 9 9 9 9 9 9 10 11
6 7 8 9 11 11 14 15 13 11 9 7 8 5 3 2 3 4 4 4 3 4 3 4 4 4 4 5 10 10 10 9 9 10 10 10 11 13
6 7 9 8 8 10 11 11 9 8 6 6 6 4 3 2 2 3 3 3 3 3 4 4 4 3 3 4 8 11 11 11 11 11 11 11 12 14
6 6 8 8 9 13 12 11 10 8 10 11 10 9 9 7 4 4 4 4 4 4 4 3 3 3 2 3 6 10 12 13 13 13 12 13 13 13
5 6 7 8 9 10 10 10 10 6 6 8 9 9 9 10 10 5 3 4 3 3 4 3 3 3 3 3 4 6 8 10 13 12 13 14 14 9
5 4 4 10 11 11 9 8 9 8 7 8 7 7 7 7 7 6 5 4 4 3 3 2 2 3 3 3 4 5 6 7 8 9 11 14 14 11
6 5 6 11 12 12 9 11 12 9 7 7 7 6 5 5 5 5 6 6 5 4 3 2 2 3 3 4 4 5 5 7 8 8 9 11 12 13
6 9 10 12 12 10 11 11 8 7 7 7 6 4 3 3 3 3 5 5 6 6 6 5 4 3 3 3 4 4 5 6 8 8 8 9 10 10
8 10 12 11 9 9 8 6 5 5 6 6 4 3 3 3 4 3 3 3 5 5 6 7 6 4 4 4 4 5 5 6 7 8 7 8 9 9
9 6 5 5 5 5 5 5 4 5 5 3 4 4 4 4 4 3 3 4 4 4 5 5 4 3 4 4 5 5 5 5 6 7 6 7 8 9
10 7 6 6 6 6 6 4 4 4 4 4 4 4 5 5 4 3 3 4 4 3 3 4 4 3 3 3 4 6 5 5 5 7 6 7 8 8
8 8 7 7 6 6 6 5 4 4 3 4 5 4 4 4 4 4 4 3 3 3 3 3 3 3 4 5 4 5 5 5 5 6 6 5 6 7
7 9 8 7 7 7 6 5 5 5 4 4 4 4 4 4 4 3 3 3 3 2 2 2 3 3 3 3 3 4 5 5 5 5 5 4 4 4
8 8 8 8 7 7 6 6 6 6 5 5 4 4 4 4 4 3 3 4 2 2 2 2 3 4 2 1 1 3 4 5 4 4 5 5 5 6
9 9 8 8 7 7 7 7 6 6 6 5 5 4 4 4 5 5 4 4 3 2 1 1 2 2 2 2 3 4 5 5 4 4 5 6 5 6
10 9 8 8 7 7 7 8 9 7 7 6 6 5 5 4 4 4 4 4 3 3 2 1 1 1 2 2 2 3 5 5 4 4 4 7 6 5
Wind_Direction
212 205 200 196 196 197 189 180 172 163 117 45 41 22 31 52 50 65 66 69 76 78 78 78 78 79 81 82 81 79 75 70 64 49 18 344 312 291
203 197 193 185 186 188 182 180 168 139 116 62 50 31 41 65 58 67 69 67 67 75 78 79 80 82 83 83 82 79 74 67 58 42 20 356 331 312
191 185 180 165 161 155 144 133 122 118 115 83 46 38 55 63 59 63 64 64 65 65 71 73 75 77 77 76 75 71 66 58 47 28 4 342 324 309
170 161 155 139 127 124 122 111 105 105 120 115 70 47 53 53 59 60 57 62 63 60 63 65 67 70 70 68 66 61 51 39 28 11 350 332 318 307
137 135 129 125 115 110 109 107 103 98 96 108 91 60 59 47 57 60 56 49 52 53 56 57 58 64 64 62 58 52 42 29 14 357 339 325 315 308
89 97 104 111 117 117 111 111 110 104 99 99 92 72 60 42 59 64 62 48 42 34 40 43 48 56 56 55 50 42 31 19 6 350 335 321 311 303
77 75 87 102 105 110 118 118 117 112 107 102 96 84 64 55 56 48 74 62 53 28 25 32 32 41 40 38 35 24 16 8 358 345 333 323 315 307
86 80 85 90 92 90 93 95 108 118 116 108 100 96 86 75 68 64 66 58 45 11 15 24 27 38 33 33 20 14 8 1 352 342 332 324 317 311
84 92 95 94 95 96 86 79 76 85 103 116 111 112 109 111 104 86 76 74 62 357 0 25 18 32 25 26 21 19 12 3 353 343 335 326 320 315
76 95 102 97 102 105 97 86 76 68 80 92 107 109 107 107 99 102 101 92 73 37 16 28 6 6 355 11 13 11 8 2 354 346 340 333 326 318
71 82 105 107 117 115 108 102 92 81 78 84 85 85 82 76 93 102 90 84 61 28 17 21 3 347 343 357 4 5 2 359 355 350 347 342 335 325
80 73 90 111 119 120 120 120 113 107 106 92 75 64 65 60 57 69 95 95 81 42 13 9 9 3 8 352 348 0 2 356 352 352 351 348 346 340
113 99 93 108 108 108 112 117 128 126 110 101 89 76 67 61 57 57 58 78 85 61 5 359 20 26 20 340 337 347 359 1 358 357 356 353 354 356
129 121 112 111 106 104 104 115 117 111 105 98 91 81 74 66 57 57 61 63 64 62 16 22 48 35 34 26 356 337 342 0 2 0 1 360 4 1
129 129 120 111 101 97 104 110 108 107 106 103 99 86 71 58 65 70 59 65 69 57 45 37 54 64 59 41 10 350 340 349 359 360 6 13 14 9
117 114 105 98 95 96 92 87 89 102 110 110 104 93 88 82 66 64 63 54 61 45 38 41 40 52 57 43 30 16 3 355 355 357 5 20 22 20
132 118 113 114 110 103 96 92 98 107 103 107 113 110 102 90 75 67 73 72 68 46 20 12 22 51 56 37 30 20 9 8 4 360 6 23 25 21
136 140 142 145 145 143 137 125 120 121 120 124 122 117 113 107 98 86 83 83 79 59 33 7 360 30 60 75 38 8 7 6 2 9 16 21 24 17
142 155 158 162 160 158 156 151 147 142 137 137 132 130 125 118 113 108 103 97 87 68 42 23 20 31 34 29 27 27 0 352 0 18 21 19 15 6
162 166 169 171 169 169 169 163 152 149 150 147 143 144 141 134 129 128 125 118 104 81 58 44 33 21 14 1 343 348 4 356 355 3 7 12 16 351
173 173 175 175 178 179 177 172 167 167 165 161 159 158 156 147 143 145 141 132 125 106 70 33 352 323 273 285 356 11 9 9 2 349 348 356 5 13
176 177 179 181 181 181 180 176 174 174 173 174 173 171 170 167 163 164 166 161 157 145 112 40 3 21 55 37 21 1 356 360 7 19 31 18 2 8
178 179 179 182 183 180 180 182 182 184 184 185 183 181 179 179 179 177 177 178 171 169 167 130 67 57 50 23 2 357 359 360 356 1 19 14 17 24